Location: Unspecified
(0.0000°N, 0.0000°E)
Time: 06:06:28
(UTC+02:00)

Daily predictions for brighter satellites

Satellite Brightness Start Highest point End
(mag) Time Altitude Azimuth Time Altitude Azimuth Time Altitude Azimuth
Meteor 1-25 Rocket 4.4 20:16:53 10° S 20:22:36 58° E 20:28:19 10° NNE
METEOR-M 4.5 20:18:57 10° SSE 20:24:02 45° ENE 20:29:05 10° N
ARIANE 5 R/B 2.0 20:24:27 10° W 20:26:52 80° N 20:34:48 10° E
Cosmos 2219 3.8 20:23:15 10° NNW 20:28:52 62° WSW 20:34:29 10° S
Meteor 1-14 Rocket 4.4 20:24:07 10° S 20:29:57 86° W 20:35:38 10° N
FENGYUN 3A 4.5 20:29:30 10° SE 20:34:07 29° ENE 20:38:40 10° NNE
CZ-4 R/B 3.6 20:30:59 10° SSW 20:34:21 28° WSW 20:37:39 10° NW
Cosmos 2297 Rocket 3.1 20:30:46 10° NNE 20:35:30 28° ENE 20:40:14 10° SE
MONITOR-E 4.4 20:33:04 10° S 20:36:09 74° W 20:39:13 10° NNW
YAOGAN 1 3.6 20:32:48 10° S 20:36:59 49° WSW 20:41:09 10° NNW
Cosmos 2322 Rocket 2.3 20:32:00 10° S 20:37:34 55° ESE 20:43:06 10° NNE
Cosmos 1452 Rocket 3.6 20:34:33 10° SSW 20:39:50 85° WNW 20:45:06 10° N
Cosmos 1420 Rocket 4.0 20:37:18 10° S 20:42:27 63° ESE 20:47:33 10° NNE
NOSS 2-3 (C) 4.2 20:39:54 10° SSW 20:44:39 65° WNW 20:49:08 10° NNE
SL-16 R/B 2.1 20:43:09 10° S 20:48:49 74° ESE 20:54:26 10° NNE
Cosmos 1674 Rocket 3.5 20:45:14 10° N 20:49:36 81° E 20:54:03 10° S
Okean 3 3.7 20:49:39 10° NNE 20:53:47 48° E 20:57:57 10° SSE
NOAA 12 4.1 20:48:37 10° SSE 20:53:54 68° ENE 20:59:06 10° N
BLOCK-DM UPPERSTAGE 3.3 20:51:01 10° W 20:54:49 88° S 20:58:47 17° E
Cosmos 1975 Rocket 4.4 20:51:45 10° NE 20:54:51 19° E 20:55:19 18° E
SPOT 3 Rocket 4.2 20:51:38 10° S 20:56:45 59° WSW 21:01:49 10° NNW
CZ-4C R/B 4.0 20:50:22 10° NNE 20:56:45 26° ENE 21:00:44 18° ESE
Sea Lan Dem Rocket 2.5 20:53:38 10° W 20:57:08 81° S 21:02:33 18° E
Cosmos 1812 3.6 20:55:32 10° NNE 20:58:51 28° E 21:00:19 22° ESE
Lacrosse 5 3.6 20:56:33 10° SW 21:01:08 34° WNW 21:05:43 10° N
SJ-6B 3.7 21:00:23 22° ESE 21:01:54 29° ENE 21:05:23 10° NNE
Mugunghwa Rocket 4.3 20:59:37 10° WNW 21:05:49 59° SSW 21:10:24 19° SE
CSL-04 DEB 4.3 21:02:56 10° SSE 21:06:52 66° ENE 21:10:52 10° N
Genesis I 3.5 21:05:02 10° NNW 21:08:57 67° WSW 21:12:32 12° SSE
ALOS 2.2 21:04:33 10° SSE 21:09:14 87° E 21:13:54 10° N
Cosmos 2360 Rocket 2.6 21:05:57 10° S 21:11:07 37° ESE 21:16:16 10° NE
FengYun 1-2 T 4.5 21:06:15 10° SSE 21:11:36 46° ENE 21:16:57 10° N
Cosmos 1633 3.2 21:08:38 10° SSW 21:12:08 55° W 21:15:39 10° N
Okean 2 Rocket 3.9 21:09:23 10° SSW 21:13:43 53° W 21:18:05 10° N
HJ-1C 4.2 21:15:22 34° NE 21:15:22 34° NE 21:17:59 10° N
Ariane 44P Rocket 2.4 21:13:38 10° W 21:21:17 62° N 21:21:59 46° NE
SeaSat 1 3.5 21:18:40 10° N 21:23:22 47° WNW 21:28:05 10° SW
Cosmos 2082 3.8 21:20:23 10° NNW 21:26:04 78° WSW 21:31:30 11° S
Cosmos 2227 Rocket 2.9 21:24:15 10° NNW 21:29:44 54° WSW 21:35:15 10° S
Cosmos 1441 Rocket 3.6 21:29:58 10° N 21:32:50 49° NNE 21:32:50 49° NNE
ISS -1.9 21:37:36 10° WNW 21:40:20 25° SW 21:40:31 25° SW
Cosmos 405 Rocket 3.8 21:37:26 10° NNW 21:41:14 45° W 21:43:48 19° SSW
Cosmos 2266 Rocket 3.9 21:35:42 10° S 21:41:41 55° E 21:47:33 10° NNE
ATLAS 2AS CENTAUR RB 3.4 20:48:57 10° WSW 21:44:52 62° S 21:47:18 44° ESE
ATLAS 2AS CENTAUR R/B 4.3 21:42:44 10° SW 21:48:58 35° WNW 21:55:44 10° N
Cosmos 1461 3.7 21:54:21 10° NW 21:58:50 53° WSW 21:58:50 53° WSW
Resurs 01 Rocket 3.7 22:08:08 19° NNW 22:08:08 19° NNW 22:09:27 10° NNW
Spelda 3.8 22:14:42 10° W 22:18:14 65° SW 22:18:14 65° SW
Cosmos 2297 Rocket 4.5 22:15:15 10° WNW 22:19:14 20° WSW 22:23:16 10° SSW
FALCON 9 R/B 4.2 22:33:09 10° WNW 22:48:00 - NE 22:34:32 17° NW
CZ-4C R/B 3.8 22:37:39 10° NW 22:45:14 45° WSW 22:46:01 44° SW
Milstar 3 4.5 22:38:05 10° NW 22:52:11 41° NNE 22:52:11 41° NNE
Ariane H10+ 4.3 23:05:35 10° W 23:13:52 35° WNW 23:13:52 35° WNW
